Location: Newark
(43.0117°N, 7.5572°W)
Time: 20:56:08
(UTC+00:00)

X-37B - Pass Details

Date: 05 October 2020
Orbit: 382 x 392 km, 45.0° (Epoch: 15 October)

Event Time Altitude Azimuth Distance (km) Brightness Sun altitude
Rises 19:22:13 0° 251° (WSW) 2,261 5.7 -15.1°
Reaches altitude 10° 19:24:17 10° 251° (WSW) 1,407 4.4 -15.5°
Maximum altitude 19:27:27 84° 164° (SSE) 390 0.5 -16.1°
Enters shadow 19:28:18 45° 79° (ENE) 533 0.8 -16.2°
